OREBRO PRIVATE current weather conditions

sailwx.info

Wind from 150 at 9 knots

Air temperature 5.0° C
Visibility: greater than 4.9 NM
Dewpoint 3.0° C
Present weather: Light rain.

Last reported at 2014-Oct-23 19:20 UTC.
Time now 2014-Oct-23 21:22 UTC

Location: N 59°14' E 015°03'.
View on Google Maps.

See reports from other nearby stations

  
Tides and Currents Weather Stations Pressure Air Temp Water Temp Dewpoint Dewpoint Depression Visibility Wind Speed Wind Dir Waves Ship Positions
date/time (UTC)wind fromknots sea level pressurealtimeterstation pressurevisibilityair tempwater tempwave heightnotes
2014-Oct-23 20:20 150 10 5.4 4.0 Light rain.
2014-Oct-23 19:50 150 9 5.4 4.0 Light rain.
2014-Oct-23 19:20 150 9 4.9 5.0 Light rain.
2014-Oct-23 18:50 150 10 5.4 5.0 Light rain.
2014-Oct-23 18:20 150 10 5.4 5.0 Light rain.
2014-Oct-23 17:50 160 10 5.4 5.0 Light rain.
2014-Oct-23 17:20 170 9 5.4 5.0 Light rain.
2014-Oct-23 16:50 160 11 5.4 5.0 Light rain.
2014-Oct-23 16:20 140 8 4.9 5.0 Light rain.
2014-Oct-23 15:20 140 8 5.4 5.0 Light rain.
2014-Oct-23 14:50 140 10 5.4 5.0 Light rain.
2014-Oct-23 14:20 140 10 5.4 5.0 Light rain.
2014-Oct-23 13:50 140 13 5.4 5.0 Drizzle.
2014-Oct-23 13:20 160 12 5.4 5.0 Light rain.
2014-Oct-23 12:50 140 11 5.4 6.0
2014-Oct-23 12:20 140 13 5.4 5.0
2014-Oct-23 11:50 140 13 5.4 5.0
2014-Oct-23 11:20 130 13 5.4 5.0
2014-Oct-23 10:50 140 12 5.4 5.0
2014-Oct-23 10:20 140 12 5.4 5.0
2014-Oct-23 09:50 150 11 5.4 5.0
2014-Oct-23 09:20 130 10 5.4 5.0
2014-Oct-23 08:50 130 10 5.4 5.0
2014-Oct-23 08:20 130 10 5.4 5.0
2014-Oct-23 07:50 140 10 5.4 5.0
2014-Oct-23 07:20 130 9 5.4 5.0
2014-Oct-23 06:50 120 8 5.4 4.0
2014-Oct-23 06:20 110 7 5.4 4.0
2014-Oct-23 05:50 110 7 5.4 4.0
2014-Oct-23 05:20 120 8 4.0
2014-Oct-23 04:50 110 7 5.4 4.0
2014-Oct-23 04:20 110 7 5.4 4.0
2014-Oct-23 03:50 110 8 5.4 4.0
2014-Oct-23 03:20 110 7 5.4 4.0
2014-Oct-23 02:50 110 8 5.4 3.0
2014-Oct-23 02:20 110 9 5.4 4.0
2014-Oct-23 01:50 110 11 5.4 3.0
2014-Oct-23 01:20 110 11 5.4 4.0 Light drizzle.
2014-Oct-23 00:50 090 8 5.4 4.0
2014-Oct-23 00:20 100 9 5.4 4.0
2014-Oct-22 23:50 100 9 5.4 4.0
2014-Oct-22 23:20 100 9 5.4 4.0
2014-Oct-22 22:50 100 10 5.4 4.0
2014-Oct-22 21:50 090 9 5.4 4.0
2014-Oct-22 21:20 100 9 5.4 4.0
2014-Oct-22 20:50 080 8 5.4 4.0
2014-Oct-22 20:20 100 9 5.4 4.0
2014-Oct-22 19:50 090 8 5.4 4.0
2014-Oct-22 19:20 100 7 5.4 4.0
2014-Oct-22 18:20 110 11 5.4 4.0
2014-Oct-22 17:50 090 8 5.4 4.0
2014-Oct-22 17:20 100 10 5.4 4.0
2014-Oct-22 16:20 070 8 5.4 4.0
2014-Oct-22 15:50 090 9 5.4 4.0
2014-Oct-22 15:20 100 10 5.4 5.0
2014-Oct-22 14:50 110 12 5.4 5.0
2014-Oct-22 14:20 100 15 5.4 5.0
2014-Oct-22 13:50 100 13 5.4 5.0
2014-Oct-22 13:20 080 14 5.4 6.0
2014-Oct-22 12:50 080 13 5.4 5.0
2014-Oct-22 12:20 100 14 5.4 5.0
2014-Oct-22 11:50 100 15 5.4 6.0
2014-Oct-22 11:20 100 16 5.4 6.0
2014-Oct-22 10:50 090 14 5.4 6.0
2014-Oct-22 10:20 100 14 5.4 5.0
2014-Oct-22 09:50 100 16 5.4 5.0
2014-Oct-22 09:20 090 15 5.4 5.0
2014-Oct-22 08:50 100 17 5.4 5.0
2014-Oct-22 08:20 090 13 5.4 5.0
2014-Oct-22 07:50 090 15 5.4 5.0
2014-Oct-22 07:20 090 15 5.4 5.0
2014-Oct-22 06:50 090 15 5.4 5.0
2014-Oct-22 06:20 090 14 5.4 6.0
2014-Oct-22 05:50 090 16 5.4 6.0
2014-Oct-22 05:20 090 13 5.4 6.0
2014-Oct-22 04:50 090 14 5.4 6.0
2014-Oct-22 04:20 080 13 5.4 7.0
2014-Oct-22 03:50 090 14 5.4 7.0
2014-Oct-22 03:20 090 14 3.8 7.0 Mist.
2014-Oct-22 02:50 090 14 5.4 7.0
2014-Oct-22 02:20 090 15 2.5 7.0 Light drizzle.
2014-Oct-22 01:50 090 14 3.2 7.0 Mist.
2014-Oct-22 01:20 090 13 2.5 7.0 Light rain.
2014-Oct-22 00:50 090 14 2.1 7.0 Light drizzle.
2014-Oct-22 00:20 090 14 3.2 7.0 Light drizzle.
2014-Oct-21 23:50 090 15 5.4 7.0 Precipitation.
2014-Oct-21 23:20 090 16 5.4 7.0
2014-Oct-21 22:50 090 16 3.8 7.0 Mist.
2014-Oct-21 22:20 100 15 5.4 8.0 Light rain.
2014-Oct-21 21:20 100 15 3.8 8.0 Light rain.